[Iaude] MPEC A08: 2014 OD394 [a=44.34,e=0.10,i=11.2,H=5.7]

mpec at mpcdb1.cfa.harvard.edu mpec at mpcdb1.cfa.harvard.edu
Tue Jan 1 22:49:16 EST 2019


M.P.E.C. 2019-A08                                Issued 2019 Jan. 2, 03:46 UT
 
     The Minor Planet Electronic Circulars contain information on unusual
         minor planets and routine data on comets.  They are published
    on behalf of Division F of the International Astronomical Union by the
          Minor Planet Center, Smithsonian Astrophysical Observatory,
                          Cambridge, MA 02138, U.S.A.

             Prepared using the Tamkin Foundation Computer Network

                              MPC at CFA.HARVARD.EDU
            URL https://www.minorplanetcenter.net/    ISSN 1523-6714


                                  2014 OD394
 
Additional Observations:
     K14Od4D  C2011 10 16.38646 00 30 25.976-06 55 06.22         21.7 GVEA008F51
     K14Od4D  C2011 10 16.39851 00 30 25.931-06 55 06.35         22.5 GVEA008F51
     K14Od4D  C2011 10 26.37015 00 29 48.974-06 58 24.82         22.3 GVEA008F51
     K14Od4D  C2011 10 27.30592 00 29 45.697-06 58 42.58         21.3 GVEA008F51
     K14Od4D KC2012 08 02.56116 00 38 34.549-06 03 43.36         21.6 GVEA008F51
     K14Od4D KC2012 08 25.48958 00 37 40.622-06 13 30.15         23.0 GVEA008F51
     K14Od4D KC2012 10 06.34880 00 35 06.810-06 32 52.12         22.4 GVEA008F51
     K14Od4D  C2012 10 10.36089 00 34 50.944-06 34 29.79         22.9 GVEA008F51
     K14Od4D  C2012 10 10.37480 00 34 50.902-06 34 30.32         22.2 GVEA008F51
     K14Od4D  C2012 10 10.38874 00 34 50.814-06 34 30.58         23.1 GVEA008F51
     K14Od4D  C2012 10 10.40264 00 34 50.784-06 34 30.88         22.4 GVEA008F51
     K14Od4D KC2012 10 19.33709 00 34 16.300-06 37 49.83         21.8 GVEA008F51
     K14Od4D KC2012 10 21.37684 00 34 08.625-06 38 30.97         21.9 GVEA008F51
     K14Od4D KC2013 01 10.22804 00 32 11.647-06 37 53.26         22.2 GVEA008F51
     K14Od4D KC2014 08 20.55429 00 45 59.361-05 33 39.18         22.4 GVEA008F51
     K14Od4D KC2014 09 13.50761 00 44 43.341-05 44 50.65         22.6 GVEA008F51
     K14Od4D  C2014 09 20.43425 00 44 17.428-05 48 07.36         21.8 GVEA008F51
     K14Od4D  C2014 09 20.44643 00 44 17.387-05 48 07.82         21.9 GVEA008F51
     K14Od4D  C2014 09 20.45858 00 44 17.340-05 48 07.98         21.9 GVEA008F51
     K14Od4D  C2014 09 20.47086 00 44 17.288-05 48 08.38         21.8 GVEA008F51
     K14Od4D KC2014 10 28.40324 00 41 50.113-06 03 18.44         22.6 GVEA008F51
     K14Od4D  C2015 10 23.35224 00 46 10.982-05 42 54.70         22.9 GVEA008F51
     K14Od4D  C2015 10 23.36741 00 46 10.912-05 42 54.81         22.0 GVEA008F51
     K14Od4D  C2015 10 23.37957 00 46 10.839-05 42 55.47         22.6 GVEA008F51
     K14Od4D  C2015 10 23.39468 00 46 10.811-05 42 55.57         21.8 GVEA008F51
     K14Od4D  C2015 10 23.40896 00 46 10.747-05 42 56.03         23.1 GVEA008F51
     K14Od4D  C2015 10 23.42403 00 46 10.687-05 42 56.31         22.0 GVEA008F51
     K14Od4D KC2015 11 06.37510 00 45 21.064-05 46 56.64         21.9 GVEA008F51
     K14Od4D  C2015 12 01.25848 00 44 15.279-05 50 10.44         22.7 GVEA008F51
     K14Od4D  C2015 12 01.26899 00 44 15.255-05 50 10.45         22.4 GVEA008F51
     K14Od4D  C2015 12 01.27950 00 44 15.238-05 50 10.27         22.4 GVEA008F51
     K14Od4D  C2015 12 01.29000 00 44 15.225-05 50 10.47         22.3 GVEA008F51
     K14Od4D KC2016 07 30.59335 00 54 36.004-04 48 06.59         22.1 GVEA008F51
     K14Od4D  C2016 08 03.55096 00 54 30.962-04 49 29.75         22.2 GVEA008F51
     K14Od4D  C2016 08 03.56239 00 54 30.935-04 49 29.89         22.0 GVEA008F51
     K14Od4D  C2016 08 03.57379 00 54 30.918-04 49 30.11         22.2 GVEA008F51
     K14Od4D  C2016 08 03.58530 00 54 30.880-04 49 30.51         22.6 GVEA008F51
     K14Od4D  C2016 08 12.57594 00 54 15.486-04 52 57.78         22.3 GVEA008F51
     K14Od4D  C2016 08 12.58727 00 54 15.478-04 52 58.26         22.6 GVEA008F51
     K14Od4D  C2016 08 12.59859 00 54 15.421-04 52 58.71         22.2 GVEA008F51
     K14Od4D KC2016 09 26.42030 00 51 54.607-05 13 28.35         21.6 GVEA008F51
     K14Od4D KC2017 08 20.54261 00 57 56.695-04 37 21.96         22.3 GVEA008F51
     K14Od4D  C2017 08 22.49917 00 57 51.838-04 38 13.25         22.2 GVEA008F51
     K14Od4D  C2017 08 22.52156 00 57 51.777-04 38 14.06         22.4 GVEA008F51
     K14Od4D  C2017 08 31.51027 00 57 26.767-04 42 17.32         22.6 GVEA008F51
     K14Od4D  C2017 08 31.52311 00 57 26.731-04 42 17.57         22.1 GVEA008F51
     K14Od4D  C2017 08 31.53596 00 57 26.686-04 42 18.11         22.6 GVEA008F51
     K14Od4D  C2017 08 31.54883 00 57 26.656-04 42 18.32         23.5 GVEA008F51
     K14Od4D  C2017 09 26.39581 00 55 55.749-04 54 25.23         22.3 GVEA008F51
     K14Od4D  C2017 09 26.40770 00 55 55.693-04 54 25.72         22.6 GVEA008F51
     K14Od4D  C2017 09 26.41938 00 55 55.644-04 54 25.92         22.5 GVEA008F51
     K14Od4D  C2017 09 26.43118 00 55 55.601-04 54 26.26         22.3 GVEA008F51
     K14Od4D  C2017 09 29.47689 00 55 43.716-04 55 49.06         22.4 GVEA008F51
     K14Od4D  C2017 09 29.48835 00 55 43.655-04 55 49.67         22.6 GVEA008F51
     K14Od4D  C2017 09 29.49982 00 55 43.598-04 55 50.09         22.5 GVEA008F51
     K14Od4D  C2017 09 29.51121 00 55 43.584-04 55 50.06         22.4 GVEA008F51
     K14Od4D  C2017 10 10.45209 00 55 00.208-05 00 33.23         23.0 GVEA008F51
     K14Od4D  C2017 10 10.46651 00 55 00.138-05 00 33.62         22.6 GVEA008F51
     K14Od4D  C2017 10 10.48093 00 55 00.048-05 00 33.96         22.0 GVEA008F51
     K14Od4D  C2017 10 22.38751 00 54 13.367-05 05 05.35         22.3 GVEA008F51
     K14Od4D  C2017 10 22.40220 00 54 13.304-05 05 05.45         22.0 GVEA008F51
     K14Od4D  C2017 10 22.41690 00 54 13.244-05 05 05.97         22.7 GVEA008F51
     K14Od4D  C2017 10 22.43154 00 54 13.194-05 05 06.45         22.6 GVEA008F51
     K14Od4D  C2017 11 11.33195 00 53 02.826-05 10 38.00         22.5 GVEA008F51
     K14Od4D  C2017 11 11.34469 00 53 02.785-05 10 38.45         22.3 GVEA008F51
 
Observer details:
F51 Pan-STARRS 1, Haleakala.  Observers J. Bulger, K. Chambers, B. Gibson,
    T. Goggia, T. Lowe, E. Magnier, N. Primak, A. Schultz, J. Thiel,
    S. Watters, M. Willman.  Measurers S. Chastel, M. Huber, R. Jedicke,
    R. Wainscoat, R. Weryk.  1.8-m Ritchey-Chretien + CCD.
 
Orbital elements:
2014 OD394
Epoch 2019 Apr. 27.0 TT = JDT 2458600.5                 MPC
M 154.37934              (2000.0)            P               Q
n   0.00333809     Peri.   84.06349     -0.81293030     +0.56295264
a  44.3408678      Node   130.09164     -0.58094454     -0.76608127
e   0.0971182      Incl.   11.23821     -0.04059271     -0.31016738
P 295              H    5.7           G   0.15           U   3
Residuals in seconds of arc
111016 F51  0.1-  0.1+    140921 W84  0.0   0.1-    160812 F51  0.3+  0.0
111016 F51  0.0   0.2+    140922 F51  0.1-  0.3+    160812 F51  0.2-  0.2-
111026 F51  0.0   0.2-    140922 F51  0.2-  0.0     160926 F51  0.2+  0.1-
111027 F51  0.5+  1.4-    140922 F51  0.1-  0.2+    170820 F51  0.2+  0.0
120802 F51  0.1-  0.0     141028 F51  0.1-  0.2-    170822 F51  0.0   0.1-
120825 F51  0.3+  0.2-    141121 F51  0.2+  0.1+    170822 F51  0.0   0.3-
121006 F51  0.1-  0.2+    141121 F51  0.4-  0.2+    170831 F51  0.0   0.0
121010 F51  0.2-  0.1+    141121 F51  0.2-  0.1+    170831 F51  0.1+  0.1+
121010 F51  0.0   0.1-    141121 F51  0.2-  0.0     170831 F51  0.0   0.0
121010 F51  0.5-  0.0     141123 F51  0.4-  0.0     170831 F51  0.1+  0.1+
121010 F51  0.1-  0.0     141123 F51  0.0   0.2+    170926 F51  0.0   0.0
121019 F51  0.5+  0.2-    141123 F51  0.2-  0.0     170926 F51  0.1-  0.1-
121021 F51  0.1+  0.0     151023 F51  0.3+  0.1+    170926 F51  0.1-  0.0
130110 F51  0.2+  0.1+    151023 F51  0.2+  0.3+    170926 F51  0.1-  0.0
140731 F51  0.1-  0.1+    151023 F51  0.2-  0.1-    170929 F51  0.1+  0.1+
140731 F51  0.1-  0.2+    151023 F51  0.2+  0.1+    170929 F51  0.1-  0.2-
140731 F51  0.2-  0.3+    151023 F51  0.1+  0.1-    170929 F51  0.3-  0.4-
140731 F51  0.2-  0.1+    151023 F51  0.0   0.0     170929 F51  0.2+  0.0
140820 F51  0.1+  0.1-    151106 F51  0.1+  0.2+    171010 F51  0.2+  0.1-
140827 F51  0.1+  0.2+    151201 F51  0.0   0.0     171010 F51  0.1+  0.2-
140827 F51  0.1+  0.2+    151201 F51  0.0   0.0     171010 F51  0.4-  0.2-
140827 F51  0.1+  0.2+    151201 F51  0.0   0.2+    171022 F51  0.1+  0.0
140913 F51  0.0   0.1+    151201 F51  0.1+  0.0     171022 F51  0.1+  0.2+
140920 F51  0.1-  0.0     160730 F51  0.3+  0.1-    171022 F51  0.0   0.0
140920 F51  0.0   0.1-    160803 F51  0.0   0.1-    171022 F51  0.1+  0.2-
140920 F51  0.0   0.1+    160803 F51  0.1-  0.0     171111 F51  0.0   0.1+
140920 F51  0.1-  0.0     160803 F51  0.1-  0.0     171111 F51  0.0   0.2-
140921 W84  0.0   0.0     160803 F51  0.4-  0.1-
140921 W84  0.0   0.0     160812 F51  0.1+  0.2+

Ephemeris:
2014 OD394               a,e,i = 44.34, 0.10, 11                 q = 40.035
Date    TT    R. A. (2000) Decl.     Delta      r     Elong.  Phase     V
2018 12 03    00 56 05.6 -04 54 14  47.7794 48.2793   120.0     1.0    22.7
...
2018 12 18    00 55 44.1 -04 53 30  48.0180 48.2807   104.9     1.1    22.7
...
2018 12 26    00 55 39.7 -04 52 15  48.1535 48.2815    96.9     1.2    22.7
...
2019 01 01    00 55 39.6 -04 50 58  48.2568 48.2820    90.9     1.2    22.7
2019 01 02    00 55 39.9 -04 50 43  48.2741 48.2821    89.9     1.2    22.7
2019 01 03    00 55 40.3 -04 50 28  48.2914 48.2822    88.9     1.2    22.7
...
2019 01 09    00 55 44.1 -04 48 46  48.3947 48.2828    82.9     1.2    22.7
...
2019 01 17    00 55 53.7 -04 46 04  48.5302 48.2835    74.9     1.1    22.7
...
2019 02 01    00 56 24.8 -04 39 51  48.7687 48.2849    60.1     1.0    22.7

A. U. Tomatic                (C) Copyright 2019 MPC           M.P.E.C. 2019-A08



More information about the Iaude mailing list